Location: Street
(51.1247°N, 2.7429°W)
Time: 00:04:04
(UTC+01:00)

CUTE 1.7 + AOD 2 - Visible Passes

Search period start: 31 May 2024 00:00
Search period end: 10 June 2024 00:00
Orbit: 569 x 586 km, 97.8° (Epoch: 30 May)

Date Brightness Start Highest point End Pass type
(mag) Time Alt. Az. Time Alt. Az. Time Alt. Az.
31 May ? 03:58:21 10° NE 04:01:39 23° E 04:04:56 10° SE visible
01 Jun ? 04:02:24 10° NE 04:05:50 25° E 04:09:15 10° SSE visible
02 Jun ? 04:06:28 10° NE 04:10:00 27° E 04:13:32 10° SSE visible
03 Jun ? 04:10:30 10° NNE 04:14:09 29° E 04:17:46 10° SSE visible
